Location: San Antonio
(29.4240°N, 98.4930°W)
Time: 15:09:51
(UTC-05:00)

BlueWalker 3 - Pass Details

Date: 19 June 2024
Orbit: 480 x 492 km, 53.2° (Epoch: 11 July)

Event Time Altitude Azimuth Distance (km) Brightness Sun altitude
Rises 20:55:50 0° 211° (SSW) 2,532 5.5 -4.5°
Reaches altitude 10° 20:58:01 10° 207° (SSW) 1,653 4.5 -4.9°
Maximum altitude 21:01:40 55° 129° (SE) 583 1.9 -5.6°
Drops below altitude 10° 21:05:19 10° 51° (NE) 1,654 4.4 -6.3°
Sets 21:07:31 0° 47° (NE) 2,534 5.4 -6.7°
